User: anonymous
Location: NJAA Observatory
(40.6819°N, 74.8979°W)
Time: 15:26:44
(UTC-04:00)
Language:

Cosmos 1939 Rocket - Orbit

View from above orbital plane
View from above orbital plane
View from above satellite
View from above satellite

Ground track
Ground track

The orbit data is extracted from the following two-line orbital elements,

1 19046U 88032B   14259.15329825  .00002225  00000-0  18244-3 0  9800
2 19046 097.6376 312.0774 0038254 152.1846 208.1434 14.99702865421834
Epoch (UTC): 16 September 2014 03:40:44
Eccentricity: 0.0038254
inclination: 97.6376°
perigee height: 541 km
apogee height: 594 km
right ascension of ascending node: 312.0774°
argument of perigee: 152.1846°
revolutions per day: 14.99702865
mean anomaly at epoch: 208.1434°
orbit number at epoch: 42183

The dashed part of the orbit path shows where the satellite is in the earth's shadow,  

DLR